This is the latest recevied weather packets stored in our database for station/object KG0HG. If no packets are shown the sender has not sent any weather packets the latest 10 day(s).
| Time | Temp. | Humidity | Pressure | Rain* | Wind** | Luminosity | Snow |
|---|---|---|---|---|---|---|---|
| 1777732150 | 11.11° C | 56% | 1021.8 hPa | 0 mm | - | 56 W/m² | - |
| 1777731846 | 10.56° C | 56% | 1022.1 hPa | 0 mm | - | 87 W/m² | - |
| 1777731543 | 10.56° C | 58% | 1022.1 hPa | 0 mm | - | 50 W/m² | - |
| 1777731241 | 10.56° C | 59% | 1022.1 hPa | 0 mm | - | 57 W/m² | - |
| 1777730938 | 10° C | 59% | 1021.9 hPa | 0 mm | - | 33 W/m² | - |
| 1777730636 | 10° C | 62% | 1022 hPa | 0 mm | - | 46 W/m² | - |
| 1777730332 | 10° C | 62% | 1022.2 hPa | 0 mm | - | 31 W/m² | - |
| 1777730029 | 9.44° C | 62% | 1021.9 hPa | 0 mm | - | 30 W/m² | - |
| 1777729725 | 9.44° C | 64% | 1022 hPa | 0 mm | - | 31 W/m² | - |
| 1777729422 | 8.89° C | 64% | 1021.9 hPa | 0 mm | - | 35 W/m² | - |
| 1777729118 | 8.89° C | 65% | 1021.8 hPa | 0 mm | - | 104 W/m² | - |
| 1777728815 | 8.89° C | 67% | 1021.8 hPa | 0 mm | - | 30 W/m² | - |
| 1777728512 | 8.33° C | 67% | 1021.9 hPa | 0 mm | - | 32 W/m² | - |
| 1777728210 | 8.33° C | 67% | 1022 hPa | 0 mm | - | 25 W/m² | - |
| 1777727906 | 7.78° C | 69% | 1021.8 hPa | 0 mm | - | 23 W/m² | - |
| 1777727603 | 7.78° C | 72% | 1021.8 hPa | 0 mm | - | 28 W/m² | - |
| 1777727300 | 7.22° C | 76% | 1021.7 hPa | 0 mm | - | 22 W/m² | - |
| 1777726998 | 6.11° C | 85% | 1021.7 hPa | 0 mm | - | 22 W/m² | - |
| 1777726695 | 5.56° C | 90% | 1021.8 hPa | 0 mm | - | 21 W/m² | - |
| 1777726392 | 5° C | 93% | 1021.5 hPa | 0 mm | - | 20 W/m² | - |
| 1777726089 | 4.44° C | 95% | 1021.9 hPa | 0 mm | - | 19 W/m² | - |
| 1777725786 | 3.89° C | 96% | 1021.4 hPa | 0 mm | - | 19 W/m² | - |
| 1777725484 | 3.89° C | 96% | 1021.4 hPa | 0 mm | - | 16 W/m² | - |
| 1777725181 | 3.89° C | 96% | 1021.6 hPa | 0 mm | - | 14 W/m² | - |
| 1777724877 | 3.33° C | 96% | 1021.4 hPa | 0 mm | - | 13 W/m² | - |
* Rain latest hour (hover to see other rain measurements)
** Current wind speed in m/s (hover to see current wind gust speed)